Back to catalog

DELTA 1 DEB

LostLEO
NORAD 48086·DEBRIS·🇺🇸 United States

Launched Nov 6, 1973 from Vandenberg Space Force Base

Loading…

Next Passes (next 24 hours)

TLE

StaleSource: Space-Track

Epoch: Aug 10, 2026, 13:20 UTC

1 48086U 73086JG  26222.55619288  .00000762  00000-0  23217-2 0  9990
2 48086 101.4483 339.0519 0260660 345.5896  13.7871 12.99434950585224

Track DELTA 1 DEB in real time with AllMySat

Download on the App Store